When you browse on this site, cookies collect data to enhance your experience and personalize the content and advertising you see.
Visit our Privacy Policy to learn more. By continuing to use the site, you agree to this use of cookies and data.
  • en France
  • Liste des pays
  • À 7 jours
  • Température de l'eau
  • Carte satellitaire
  • Carte météo
  • Widgets météo
  • user-avatar
    Se connecter

    Météo par heure à Lezhё

    Ce jour, 24 Mars, Dimanche

    Heure Température Précipitation Vent Pression Humidité
    00:00 +12°C° 0 mm 3 m/s 741 mmHg 65%
    01:00 +12°C° 0 mm 4 m/s 741 mmHg 66%
    02:00 +11°C° 0 mm 4 m/s 741 mmHg 67%
    03:00 +11°C° 0 mm 3 m/s 741 mmHg 67%
    04:00 +10°C° 0 mm 3 m/s 741 mmHg 68%
    05:00 +10°C° 0 mm 3 m/s 741 mmHg 65%
    06:00 +11°C° 0 mm 3 m/s 741 mmHg 62%
    07:00 +11°C° 0 mm 3 m/s 741 mmHg 59%
    08:00 +14°C° 0 mm 3 m/s 741 mmHg 50%
    09:00 +17°C° 0 mm 3 m/s 741 mmHg 42%
    10:00 +19°C° 0 mm 2 m/s 741 mmHg 33%
    11:00 +20°C° 0 mm 2 m/s 740 mmHg 31%
    12:00 +21°C° 0 mm 2 m/s 740 mmHg 30%
    13:00 +23°C° 0 mm 2 m/s 740 mmHg 28%
    14:00 +23°C° 0 mm 2 m/s 740 mmHg 30%
    15:00 +21°C° 0 mm 3 m/s 739 mmHg 32%
    16:00 +21°C° 0 mm 3 m/s 739 mmHg 34%
    17:00 +19°C° 0 mm 3 m/s 739 mmHg 41%
    18:00 +17°C° 0 mm 2 m/s 739 mmHg 48%
    19:00 +15°C° 0 mm 1 m/s 739 mmHg 54%
    20:00 +14°C° 0 mm 1 m/s 739 mmHg 55%
    21:00 +14°C° 0 mm 1 m/s 739 mmHg 55%
    22:00 +13°C° 0 mm 1 m/s 739 mmHg 55%
    23:00 +13°C° 0 mm 1 m/s 739 mmHg 56%

    Demain, 25 Mars, Lundi

    Heure Température Précipitation Vent Pression Humidité
    00:00 +13°C° 0 mm 1 m/s 739 mmHg 56%
    01:00 +12°C° 0 mm 1 m/s 739 mmHg 57%
    02:00 +12°C° 0 mm 1 m/s 738 mmHg 60%
    03:00 +12°C° 0 mm 1 m/s 738 mmHg 62%
    04:00 +11°C° 0 mm 1 m/s 737 mmHg 64%
    05:00 +12°C° 0 mm 1 m/s 737 mmHg 63%
    06:00 +12°C° 0 mm 1 m/s 737 mmHg 62%
    07:00 +13°C° 0 mm 1 m/s 737 mmHg 62%
    08:00 +14°C° 0 mm 1 m/s 737 mmHg 56%
    09:00 +16°C° 0 mm 2 m/s 737 mmHg 51%
    10:00 +18°C° 0 mm 2 m/s 736 mmHg 45%
    11:00 +18°C° 0 mm 2 m/s 736 mmHg 44%
    12:00 +18°C° 0 mm 2 m/s 735 mmHg 43%
    13:00 +19°C° 0 mm 3 m/s 735 mmHg 42%
    14:00 +18°C° 0 mm 2 m/s 734 mmHg 43%
    15:00 +18°C° 0 mm 2 m/s 734 mmHg 44%
    16:00 +17°C° 0 mm 2 m/s 733 mmHg 45%
    17:00 +16°C° 0 mm 1 m/s 733 mmHg 53%
    18:00 +14°C° 0 mm 1 m/s 733 mmHg 60%
    19:00 +11°C° 0 mm 0 m/s 733 mmHg 68%
    20:00 +12°C° 0 mm 1 m/s 733 mmHg 69%
    21:00 +12°C° 0 mm 1 m/s 733 mmHg 69%
    22:00 +11°C° 0 mm 1 m/s 733 mmHg 70%
    23:00 +11°C° 0 mm 1 m/s 733 mmHg 69%

    Après-demain, 26 Mars, Mardi

    Heure Température Précipitation Vent Pression Humidité
    00:00 +11°C° 0 mm 1 m/s 733 mmHg 69%
    01:00 +11°C° 0 mm 1 m/s 733 mmHg 68%
    02:00 +11°C° 0 mm 1 m/s 733 mmHg 66%
    03:00 +10°C° 0 mm 2 m/s 734 mmHg 64%
    04:00 +9°C° 0 mm 2 m/s 734 mmHg 62%
    05:00 +10°C° 0 mm 2 m/s 734 mmHg 62%
    06:00 +10°C° 0 mm 2 m/s 734 mmHg 62%
    07:00 +11°C° 0 mm 3 m/s 735 mmHg 62%
    08:00 +12°C° 0 mm 3 m/s 735 mmHg 57%
    09:00 +14°C° 0 mm 3 m/s 735 mmHg 52%
    10:00 +15°C° 0 mm 4 m/s 736 mmHg 47%
    11:00 +15°C° 0 mm 4 m/s 736 mmHg 45%
    12:00 +17°C° 0 mm 4 m/s 736 mmHg 43%
    13:00 +16°C° 0 mm 5 m/s 736 mmHg 41%
    14:00 +16°C° 0 mm 5 m/s 736 mmHg 42%
    15:00 +16°C° 0 mm 5 m/s 736 mmHg 42%
    16:00 +15°C° 0 mm 5 m/s 736 mmHg 42%
    17:00 +14°C° 0 mm 5 m/s 737 mmHg 46%
    18:00 +12°C° 0 mm 5 m/s 737 mmHg 50%
    19:00 +10°C° 0 mm 5 m/s 738 mmHg 53%
    20:00 +9°C° 0 mm 5 m/s 739 mmHg 53%
    21:00 +9°C° 0 mm 5 m/s 739 mmHg 54%
    22:00 +8°C° 0 mm 5 m/s 740 mmHg 54%
    23:00 +8°C° 0 mm 5 m/s 740 mmHg 54%

    27 Mars, Mercredi

    Heure Température Précipitation Vent Pression Humidité
    00:00 +7°C° 0 mm 5 m/s 740 mmHg 53%
    01:00 +7°C° 0 mm 5 m/s 740 mmHg 53%
    02:00 +7°C° 0 mm 5 m/s 740 mmHg 53%
    03:00 +6°C° 0 mm 4 m/s 740 mmHg 53%
    04:00 +6°C° 0 mm 4 m/s 740 mmHg 53%
    05:00 +6°C° 0 mm 4 m/s 740 mmHg 52%
    06:00 +7°C° 0 mm 5 m/s 740 mmHg 51%
    07:00 +7°C° 0 mm 5 m/s 740 mmHg 51%
    08:00 +9°C° 0 mm 5 m/s 740 mmHg 45%
    09:00 +12°C° 0 mm 5 m/s 740 mmHg 39%
    10:00 +14°C° 0 mm 4 m/s 741 mmHg 33%
    11:00 +14°C° 0 mm 4 m/s 740 mmHg 32%
    12:00 +15°C° 0 mm 4 m/s 740 mmHg 32%
    13:00 +17°C° 0 mm 4 m/s 740 mmHg 32%
    14:00 +15°C° 0 mm 4 m/s 740 mmHg 33%
    15:00 +15°C° 0 mm 4 m/s 740 mmHg 35%
    16:00 +15°C° 0 mm 5 m/s 740 mmHg 37%
    17:00 +13°C° 0 mm 5 m/s 740 mmHg 39%
    18:00 +12°C° 0 mm 5 m/s 740 mmHg 41%
    19:00 +10°C° 0 mm 5 m/s 741 mmHg 43%
    20:00 +10°C° 0 mm 5 m/s 741 mmHg 45%
    21:00 +10°C° 0 mm 4 m/s 741 mmHg 47%
    22:00 +10°C° 0 mm 4 m/s 742 mmHg 49%
    23:00 +8°C° 0 mm 4 m/s 742 mmHg 51%

    28 Mars, Jeudi

    Heure Température Précipitation Vent Pression Humidité
    00:00 +8°C° 0 mm 4 m/s 742 mmHg 53%
    01:00 +8°C° 0 mm 4 m/s 742 mmHg 55%
    02:00 +8°C° 0 mm 4 m/s 741 mmHg 55%
    03:00 +7°C° 0 mm 4 m/s 741 mmHg 56%
    04:00 +7°C° 0 mm 5 m/s 741 mmHg 56%
    05:00 +7°C° 0 mm 5 m/s 741 mmHg 57%
    06:00 +8°C° 0 mm 5 m/s 741 mmHg 57%
    07:00 +8°C° 0 mm 5 m/s 741 mmHg 58%
    08:00 +9°C° 0 mm 5 m/s 742 mmHg 56%
    09:00 +10°C° 0 mm 5 m/s 742 mmHg 53%
    10:00 +12°C° 0 mm 5 m/s 742 mmHg 51%
    11:00 +13°C° 0 mm 5 m/s 742 mmHg 48%
    12:00 +14°C° 0 mm 5 m/s 742 mmHg 46%
    13:00 +15°C° 0 mm 5 m/s 741 mmHg 44%
    14:00 +15°C° 0 mm 5 m/s 741 mmHg 45%
    15:00 +15°C° 0 mm 6 m/s 741 mmHg 46%
    16:00 +14°C° 0 mm 6 m/s 741 mmHg 47%
    17:00 +13°C° 0 mm 6 m/s 741 mmHg 51%
    18:00 +12°C° 0 mm 5 m/s 741 mmHg 55%
    19:00 +9°C° 0 mm 5 m/s 742 mmHg 58%
    20:00 +9°C° 0 mm 5 m/s 742 mmHg 59%
    21:00 +8°C° 0 mm 5 m/s 742 mmHg 60%
    22:00 +8°C° 0 mm 5 m/s 742 mmHg 61%
    23:00 +8°C° 0 mm 5 m/s 743 mmHg 62%

    29 Mars, Vendredi

    Heure Température Précipitation Vent Pression Humidité
    00:00 +7°C° 0 mm 4 m/s 743 mmHg 62%
    01:00 +7°C° 0 mm 4 m/s 743 mmHg 63%
    02:00 +6°C° 0 mm 4 m/s 743 mmHg 63%
    03:00 +6°C° 0 mm 4 m/s 743 mmHg 63%
    04:00 +5°C° 0 mm 4 m/s 743 mmHg 63%
    05:00 +6°C° 0 mm 5 m/s 743 mmHg 59%
    06:00 +6°C° 0 mm 5 m/s 743 mmHg 56%
    07:00 +7°C° 0 mm 5 m/s 743 mmHg 53%
    08:00 +8°C° 0 mm 5 m/s 743 mmHg 47%
    09:00 +10°C° 0 mm 6 m/s 743 mmHg 40%
    10:00 +11°C° 0 mm 6 m/s 743 mmHg 34%
    11:00 +13°C° 0 mm 6 m/s 742 mmHg 32%
    12:00 +14°C° 0 mm 6 m/s 742 mmHg 31%
    13:00 +15°C° 0 mm 6 m/s 742 mmHg 30%
    14:00 +14°C° 0 mm 6 m/s 741 mmHg 30%
    15:00 +14°C° 0 mm 6 m/s 741 mmHg 31%
    16:00 +14°C° 0 mm 6 m/s 741 mmHg 31%
    17:00 +12°C° 0 mm 5 m/s 741 mmHg 35%
    18:00 +10°C° 0 mm 5 m/s 741 mmHg 39%
    19:00 +8°C° 0 mm 5 m/s 741 mmHg 42%
    20:00 +8°C° 0 mm 5 m/s 742 mmHg 44%
    21:00 +7°C° 0 mm 5 m/s 742 mmHg 46%
    22:00 +6°C° 0 mm 5 m/s 742 mmHg 48%
    23:00 +6°C° 0 mm 4 m/s 742 mmHg 50%
    Voir plus